This demonstration page uses our WeatherBlox Daily Observations layout. Learn more.

Left ArrowRight Arrow

Hourly Observations for June 22, 2021

Temp ( °F °C ) Dew Point ( °F °C ) Humidity (%) Winds ( mph kmh ) Pressure ( in mb ) Visibility ( mi km ) Precip ( " mm )
12:53 am 00:53 Clear 83 28.3 49 9.4 31 31 S 3 6 29.80 1009 10 16 0.00 0.00
1:53 am 01:53 Clear 81 27.2 48 8.9 32 32 Calm 29.81 1009 10 16 0.00 0.00
2:53 am 02:53 Clear 79 26.1 49 9.4 35 35 SSW 3 6 29.79 1009 10 16 0.00 0.00
3:53 am 03:53 Clear 73 22.8 49 9.4 43 43 WSW 6 9 29.80 1009 10 16 0.00 0.00
4:53 am 04:53 Clear 70 21.1 49 9.4 47 47 SE 7 11 29.81 1009 10 16 0.00 0.00
5:53 am 05:53 Sunny 70 21.1 49 9.4 47 47 SSE 13 20 29.81 1010 10 16 0.00 0.00
6:53 am 06:53 Sunny 71 21.7 50 10 47 47 S 7 11 29.82 1010 10 16 0.00 0.00
7:53 am 07:53 Sunny 72 22.2 50 10 46 46 S 7 11 29.83 1010 10 16 0.00 0.00
8:53 am 08:53 Sunny 74 23.3 51 10.6 45 45 SSE 9 15 29.83 1010 10 16 0.00 0.00
9:53 am 09:53 Sunny 77 25 50 10 39 39 S 8 13 29.83 1010 10 16 0.00 0.00
10:53 am 10:53 Sunny 80 26.7 49 9.4 34 34 SSW 10 17 29.83 1010 10 16 0.00 0.00
11:53 am 11:53 Sunny 84 28.9 48 8.9 29 29 S 10 17 29.83 1010 10 16 0.00 0.00
12:53 pm 12:53 Sunny 89 31.7 47 8.3 23 23 S 8 13 29.81 1010 10 16 0.00 0.00
1:53 pm 13:53 Sunny 89 31.7 46 7.8 23 23 S 8 13 29.80 1009 10 16 0.00 0.00
2:53 pm 14:53 Sunny 91 32.8 45 7.2 20 20 SSW 6 9 29.79 1009 10 16 0.00 0.00
3:53 pm 15:53 Sunny 94 34.4 43 6.1 17 17 undefined N/A 29.76 1008 10 16 0.00 0.00
4:53 pm 16:53 Sunny 94 34.4 42 5.6 17 17 SSW 12 19 29.74 1007 10 16 0.00 0.00
5:53 pm 17:53 Sunny 94 34.4 40 4.4 15 15 SSW 13 20 29.72 1006 10 16 0.00 0.00
6:53 pm 18:53 Sunny 93 33.9 42 5.6 17 17 S 13 20 29.71 1006 10 16 0.00 0.00
7:53 pm 19:53 Sunny 90 32.2 46 7.8 22 22 S 12 19 29.72 1007 10 16 0.00 0.00
8:53 pm 20:53 Clear 85 29.4 50 10 30 30 SSE 7 11 29.74 1007 10 16 0.00 0.00
9:53 pm 21:53 Clear 83 28.3 54 12.2 37 37 S 7 11 29.76 1008 10 16 0.00 0.00
10:53 pm 22:53 Clear 79 26.1 52 11.1 39 39 Calm 29.78 1009 10 16 0.00 0.00
11:53 pm 23:53 Clear 77 25 52 11.1 42 42 SE 3 6 29.80 1009 10 16 0.00 0.00

Powered by AerisWeather